Location: Bethune
(34.4150°N, 80.3490°W)
Time: 06:22:41
(UTC-04:00)

ISS - Visible Passes

Search period start: 13 May 2021 00:00
Search period end: 23 May 2021 00:00
Orbit: 417 x 422 km, 51.6° (Epoch: 13 May)

Date Brightness Start Highest point End Pass type
(mag) Time Alt. Az. Time Alt. Az. Time Alt. Az.
13 May -2.3 05:30:53 10° NNW 05:34:07 41° NE 05:37:19 10° ESE visible
13 May -2.6 22:11:24 10° SW 22:13:27 35° WSW 22:13:27 35° WSW visible
14 May -1.3 04:43:43 10° NNW 04:46:35 25° NE 04:49:26 10° E visible
14 May -3.7 21:24:05 10° SSW 21:27:20 53° SE 21:30:38 10° ENE visible
14 May -0.7 23:02:09 10° WNW 23:04:22 16° NNW 23:06:36 10° NNE visible
15 May -0.6 03:56:44 10° NNW 03:58:59 16° NNE 04:01:14 10° ENE visible
15 May -3.7 05:32:43 10° WNW 05:36:01 53° SW 05:39:18 10° SSE visible
15 May -1.3 22:13:57 10° W 22:16:46 25° NW 22:19:36 10° NNE visible
16 May -0.2 03:10:08 10° N 03:11:20 11° NNE 03:12:31 10° NE visible
16 May -3.7 04:45:14 10° NW 04:48:37 78° NE 04:51:59 10° SE visible
16 May -2.3 21:26:03 10° WSW 21:29:15 41° NW 21:32:27 10° NNE visible
17 May -2.5 04:00:14 33° N 04:01:09 41° NE 04:04:21 10° ESE visible
17 May -2.0 05:35:41 10° W 05:37:41 15° SW 05:39:40 10° SSW visible
17 May -0.3 22:17:56 10° NW 22:19:04 11° NNW 22:20:12 10° N visible
18 May -0.6 21:29:12 10° WNW 21:31:24 16° NNW 21:33:37 10° N visible
21 May -0.4 20:44:59 10° NW 20:46:05 11° NNW 20:47:11 10° N visible
